TimeEST,TemperatureF,Dew PointF,Humidity,Sea Level PressureIn,VisibilityMPH,Wind Direction,Wind SpeedMPH,Gust SpeedMPH,PrecipitationIn,Events,Conditions,WindDirDegrees,DateUTC
6:00 AM,77.0,73.4,89,29.98,6.2,East,5.8,-,N/A,,Mostly Cloudy,100,2014-01-28 11:00:00
7:00 AM,76,75,94,29.99,6,East,3.5,,,,Partly Cloudy,100,2014-01-28 12:00:00
7:00 AM,75.2,75.2,100,29.98,6.2,East,3.5,-,N/A,,Mostly Cloudy,100,2014-01-28 12:00:00
8:00 AM,77.0,75.2,94,30.01,6.2,East,4.6,-,N/A,,Partly Cloudy,100,2014-01-28 13:00:00
9:00 AM,80.6,75.2,84,30.04,6.2,East,5.8,-,N/A,,Partly Cloudy,90,2014-01-28 14:00:00
10:00 AM,82.4,75.2,79,30.04,6.2,East,9.2,-,N/A,,Scattered Clouds,100,2014-01-28 15:00:00
11:00 AM,84.2,77.0,79,30.04,6.2,East,9.2,-,N/A,,Scattered Clouds,100,2014-01-28 16:00:00
12:00 PM,84.2,77.0,79,30.01,6.2,ESE,10.4,-,N/A,,Partly Cloudy,110,2014-01-28 17:00:00
1:00 PM,83,74,67,30.01,6,ESE,10.4,,,,Partly Cloudy,120,2014-01-28 18:00:00
1:00 PM,84.2,73.4,70,30.01,6.2,ESE,10.4,-,N/A,,Scattered Clouds,120,2014-01-28 18:00:00
2:00 PM,84.2,75.2,74,29.98,6.2,SE,9.2,-,N/A,,Scattered Clouds,140,2014-01-28 19:00:00
3:00 PM,82.4,73.4,74,29.95,6.2,ESE,9.2,-,N/A,,Scattered Clouds,110,2014-01-28 20:00:00
4:00 PM,82.4,75.2,79,29.95,6.2,ESE,9.2,-,N/A,,Scattered Clouds,120,2014-01-28 21:00:00
5:00 PM,82.4,75.2,79,29.95,6.2,East,6.9,-,N/A,,Scattered Clouds,100,2014-01-28 22:00:00
6:00 PM,80.6,73.4,79,29.98,6.2,East,4.6,-,N/A,,Partly Cloudy,100,2014-01-28 23:00:00
7:00 PM,79,74,79,29.98,6,East,3.5,,,,Scattered Clouds,90,2014-01-29 00:00:00
7:00 PM,78.8,73.4,83,29.98,6.2,East,3.5,-,N/A,,Partly Cloudy,90,2014-01-29 00:00:00
8:00 PM,78.8,75.2,89,29.98,6.2,East,5.8,-,N/A,,Partly Cloudy,90,2014-01-29 01:00:00
9:00 PM,78.8,75.2,89,30.01,6.2,East,3.5,-,N/A,,Partly Cloudy,100,2014-01-29 02:00:00
10:00 PM,77.0,75.2,94,30.01,6.2,East,4.6,-,N/A,,Partly Cloudy,90,2014-01-29 03:00:00